Stations météo

réclame
Mon MeteoGroup
Biarritz, France (7602): Température de l'air & dewpoint: 12.06.2018 13:00:00 - 18.06.2018 13:00:00 (CEST)Biarritz, France (7602): Température de l'air 5cm: 12.06.2018 13:00:00 - 18.06.2018 13:00:00 (CEST)Biarritz, France (7602): Température de l'air -20cm & Température de l'air -100cm: 12.06.2018 13:00:00 - 18.06.2018 13:00:00 (CEST)Biarritz, France (7602): Vitesse du vent & gusts: 12.06.2018 13:00:00 - 18.06.2018 13:00:00 (CEST)Biarritz, France (7602): Direction du vent: 12.06.2018 13:00:00 - 18.06.2018 13:00:00 (CEST)Biarritz, France (7602): reduced air pressure: 12.06.2018 13:00:00 - 18.06.2018 13:00:00 (CEST)Biarritz, France (7602): visibility: 12.06.2018 13:00:00 - 18.06.2018 13:00:00 (CEST)Biarritz, France (7602): Ensoleillement: 12.06.2018 13:00:00 - 18.06.2018 13:00:00 (CEST)Biarritz, France (7602): Quantités de précipitations: 12.06.2018 13:00:00 - 18.06.2018 13:00:00 (CEST)
Date & Time tt [°C] td [°C] tt 5cm [°C] tt -20cm [°C] tt -100cm [°C] ff [km/h] ff [knt] fx [km/h] fx [knt] dd ppp [hPa] vv [km] sd [min] rr [mm]
18.06.2018 13:00:00 - - - - - - - - - - - - - -
18.06.2018 12:00:00 16,5 15,5 17,4 19,1 18,0 6 3 15 8 SW 1027,5 9 2 0,0
18.06.2018 11:00:00 16,3 15,5 16,9 19,0 17,9 7 4 14 8 SW 1027,6 3,3 0 0,2
18.06.2018 10:00:00 16,6 15,3 17,4 19,1 17,9 7 4 14 7 WSW 1027,5 6 0 0,0
18.06.2018 09:00:00 16,8 14,3 17,0 19,1 17,9 5 3 9 5 SW 1027,4 37 0 0,0
18.06.2018 08:00:00 16,0 14,0 15,0 19,2 17,9 3 2 6 4 S 1027,0 36 9 0,0
18.06.2018 07:00:00 15,0 13,2 14,6 19,2 17,9 5 3 8 5 S 1026,7 34 0 0,0
18.06.2018 06:00:00 15,0 13,4 14,5 19,4 17,9 5 3 8 4 S 1026,5 33 0 0,0
18.06.2018 05:00:00 14,6 13,0 14,3 19,5 17,9 5 3 8 4 S 1026,5 31 0 0,0
18.06.2018 04:00:00 14,3 13,0 12,4 19,6 17,9 6 3 9 5 S 1026,5 24 0 0,0
18.06.2018 03:00:00 14,1 12,8 12,1 19,7 17,9 4 2 7 4 SSW 1026,8 19 0 0,0
18.06.2018 02:00:00 14,3 12,8 12,6 19,8 17,9 4 2 7 4 S 1026,9 32 0 0,0
18.06.2018 01:00:00 14,7 12,7 12,5 20,0 17,9 4 2 7 4 S 1027,0 29 0 0,0
18.06.2018 00:00:00 15,9 13,2 12,6 20,1 17,9 3 2 5 3 WSW 1027,3 30 0 0,0
17.06.2018 23:00:00 16,4 12,7 14,2 20,2 17,9 3 2 16 9 W 1026,9 41 0 0,0
17.06.2018 22:00:00 16,9 12,8 15,2 20,2 17,9 8 4 14 7 NW 1026,6 46 3 0,0
17.06.2018 21:00:00 17,9 12,6 18,0 20,2 17,8 10 5 19 11 NW 1026,4 47 53 0,0
17.06.2018 20:00:00 18,8 13,4 20,7 20,2 17,8 12 6 24 13 WNW 1026,2 40 60 0,0
17.06.2018 19:00:00 19,4 13,6 23,5 20,2 17,9 16 8 24 13 WNW 1026,0 39 60 0,0
17.06.2018 18:00:00 19,7 14,1 25,2 20,1 17,8 15 8 25 14 WNW 1025,8 56 60 0,0
17.06.2018 17:00:00 20,0 14,1 25,2 19,8 17,8 16 9 24 13 NW 1025,6 45 60 0,0
17.06.2018 16:00:00 19,6 14,2 22,5 19,5 17,9 18 10 32 17 NW 1025,7 35 46 0,0
17.06.2018 15:00:00 20,2 16,0 22,9 19,2 17,9 22 12 36 19 WNW 1025,6 2,8 54 0,0
17.06.2018 14:00:00 19,4 15,7 23,5 18,9 17,8 20 11 34 18 W 1025,5 1,1 58 0,0
17.06.2018 13:00:00 18,7 15,0 23,7 18,8 17,8 15 8 24 13 W 1025,2 1,8 60 0,0
17.06.2018 12:00:00 18,5 15,7 18,0 18,7 17,8 11 6 20 11 W 1025,3 34 20 0,0
17.06.2018 11:00:00 16,7 15,2 17,3 18,7 17,8 9 5 17 9 W 1025,5 15 0 0,0
17.06.2018 10:00:00 17,0 15,0 16,8 18,7 17,8 0 0 13 7 N 1025,5 49 0 0,0
17.06.2018 09:00:00 15,7 15,1 15,0 18,7 17,8 2 1 10 5 NNW 1025,0 13 0 0,6
17.06.2018 08:00:00 15,0 14,2 14,5 18,8 17,8 2 1 8 4 SSE 1024,4 7 0 0,2
17.06.2018 07:00:00 14,6 13,3 14,2 18,9 17,8 2 1 8 4 ESE 1023,9 19 0 0,0
17.06.2018 06:00:00 14,6 13,1 14,3 19,0 17,8 5 3 8 4 S 1023,4 29 0 0,0
17.06.2018 05:00:00 14,4 13,1 13,4 19,0 17,8 4 2 6 4 S 1023,3 33 0 0,0
17.06.2018 04:00:00 13,9 12,8 11,6 19,2 17,8 5 3 7 4 SSW 1023,5 22 0 0,0
17.06.2018 03:00:00 13,7 12,3 11,7 19,3 17,8 5 3 7 4 SSW 1023,5 31 0 0,0
17.06.2018 02:00:00 14,1 12,5 11,9 19,4 17,8 5 3 7 4 SSW 1023,5 24 0 0,0
17.06.2018 01:00:00 15,3 13,1 12,5 19,5 17,8 2 1 6 3 SW 1023,7 38 0 0,0
17.06.2018 00:00:00 15,8 12,9 13,1 19,6 17,8 4 2 8 4 SW 1023,6 35 0 0,0
16.06.2018 23:00:00 16,8 12,9 14,9 19,7 17,8 4 2 9 5 SW 1023,6 46 0 0,0
16.06.2018 22:00:00 16,8 12,3 14,7 19,7 17,8 8 5 10 6 WNW 1022,9 59 18 0,0
16.06.2018 21:00:00 18,2 12,0 17,5 19,7 17,8 5 3 16 8 NW 1022,3 57 29 0,0
16.06.2018 20:00:00 18,3 11,4 18,6 19,7 17,8 11 6 20 11 NW 1022,1 55 51 0,0
16.06.2018 19:00:00 18,9 12,2 20,2 19,7 17,8 12 6 22 12 WNW 1021,5 31 35 0,0
16.06.2018 18:00:00 19,6 12,1 24,6 19,5 17,8 14 8 23 12 NW 1021,4 20 60 0,0
16.06.2018 17:00:00 19,6 12,1 25,9 19,3 17,8 11 6 24 13 N 1021,1 9 60 0,0
16.06.2018 16:00:00 19,7 12,2 24,5 19,0 17,8 12 7 24 13 NW 1021,4 19 60 0,0
16.06.2018 15:00:00 19,6 12,6 23,5 18,8 17,8 10 6 22 12 N 1021,3 18 36 0,0
16.06.2018 14:00:00 19,0 12,0 22,5 18,6 17,8 5 3 17 9 NW 1021,4 50 36 0,0
16.06.2018 13:00:00 19,0 12,3 21,9 18,5 17,8 7 4 21 11 NNW 1021,3 45 3 0,0
16.06.2018 12:00:00 18,2 12,9 19,2 18,5 17,8 9 5 32 17 N 1021,2 58 0 0,0
16.06.2018 11:00:00 17,6 12,5 17,6 18,5 17,8 10 6 17 9 N 1020,9 52 0 0,0
16.06.2018 10:00:00 16,8 13,7 15,9 18,5 17,8 6 3 16 8 NNE 1020,5 27 0 0,0
16.06.2018 09:00:00 16,3 14,5 15,8 18,6 17,8 11 6 20 11 N 1020,0 18 0 0,0
16.06.2018 08:00:00 16,9 15,2 15,8 18,6 17,7 0 0 6 3 N 1019,4 20 0 0,0
16.06.2018 07:00:00 16,4 15,1 15,6 18,6 17,7 4 2 9 5 N 1019,3 20 0 0,0
16.06.2018 06:00:00 16,4 15,4 15,8 18,7 17,8 4 2 12 6 NNW 1019,2 15 0 0,0
16.06.2018 05:00:00 16,5 15,7 15,9 18,7 17,8 4 2 15 8 NNW 1019,2 13 0 0,0
16.06.2018 04:00:00 16,5 15,9 15,7 18,8 17,8 5 3 8 5 NNW 1019,2 13 0 0,0
16.06.2018 03:00:00 16,5 16,2 16,0 18,8 17,8 4 2 6 4 W 1019,6 3,1 0 0,0
16.06.2018 02:00:00 16,5 16,0 15,5 18,9 17,8 3 2 4 2 WSW 1020,0 9 0 0,0
16.06.2018 01:00:00 16,3 15,8 15,1 18,9 17,8 0 0 6 3 N 1020,1 14 0 0,0
16.06.2018 00:00:00 16,5 16,0 16,2 19,0 17,8 4 2 20 11 N 1020,2 9 0 0,2
15.06.2018 23:00:00 16,9 16,4 16,6 19,0 17,8 9 5 15 8 NNW 1020,3 1,8 0 0,8
15.06.2018 22:00:00 17,1 16,6 16,8 19,0 17,8 5 3 9 5 NW 1020,0 8 0 0,0
15.06.2018 21:00:00 17,1 16,6 17,0 19,0 17,8 6 3 11 6 WNW 1020,0 11 0 0,0
15.06.2018 20:00:00 17,0 16,5 16,9 19,0 17,8 9 5 14 8 W 1019,9 2,5 0 1,2
15.06.2018 19:00:00 17,1 16,5 17,4 18,9 17,8 8 5 12 6 W 1019,9 2,6 0 0,4
15.06.2018 18:00:00 16,9 16,3 16,9 18,9 17,8 6 3 14 8 SW 1019,9 2,1 0 0,2
15.06.2018 17:00:00 16,5 15,7 16,8 18,8 17,8 9 5 18 10 W 1020,4 2,4 0 0,4
15.06.2018 16:00:00 17,1 15,1 17,2 18,6 17,8 12 7 24 13 W 1020,5 14 0 0,0
15.06.2018 15:00:00 18,3 14,6 20,4 18,5 17,8 14 8 26 14 W 1020,1 19 0 0,0
15.06.2018 14:00:00 19,2 15,1 22,5 18,3 17,8 15 8 26 14 W 1019,8 42 51 0,0
15.06.2018 13:00:00 18,4 14,7 21,6 18,2 17,8 13 7 22 12 W 1019,9 19 3 0,0
15.06.2018 12:00:00 18,0 13,9 20,6 18,1 17,8 11 6 19 10 W 1019,9 42 0 0,0
15.06.2018 11:00:00 17,7 14,4 18,9 18,1 17,8 5 3 13 7 WSW 1019,9 52 0 0,0
15.06.2018 10:00:00 16,3 14,0 16,2 18,1 17,8 4 2 8 5 SW 1019,8 20 0 0,0
15.06.2018 09:00:00 14,6 13,3 14,0 18,2 17,8 3 2 7 4 S 1019,8 28 0 0,0
15.06.2018 08:00:00 13,7 12,9 11,2 18,3 17,8 4 2 8 4 SSE 1019,6 25 0 0,0
15.06.2018 07:00:00 12,2 11,6 10,0 18,4 17,8 4 2 8 4 SSW 1019,4 20 0 0,0
15.06.2018 06:00:00 12,4 11,6 9,3 18,5 17,8 5 3 7 4 SSW 1019,3 24 0 0,0
15.06.2018 05:00:00 12,4 11,6 9,3 18,6 17,8 4 2 7 4 S 1019,3 10 0 0,0
15.06.2018 04:00:00 13,1 12,2 11,4 18,7 17,8 5 3 8 4 S 1019,6 24 0 0,0
15.06.2018 03:00:00 13,0 12,2 9,9 18,8 17,8 6 3 9 5 S 1020,0 17 0 0,0
15.06.2018 02:00:00 13,6 12,7 10,8 18,9 17,8 5 3 10 5 SSE 1020,3 20 0 0,0
15.06.2018 01:00:00 14,6 13,1 12,0 19,0 17,8 7 4 10 5 SSE 1020,3 25 0 0,0
15.06.2018 00:00:00 15,4 13,6 11,9 19,1 17,8 3 1 5 3 WSW 1020,6 35 0 0,0
14.06.2018 23:00:00 15,7 13,5 12,2 19,2 17,8 2 1 5 3 W 1020,7 48 0 0,0
14.06.2018 22:00:00 16,6 13,1 14,3 19,2 17,8 5 3 12 6 NW 1020,5 60 18 0,0
14.06.2018 21:00:00 17,9 13,0 19,3 19,2 17,8 5 3 18 10 NW 1020,4 60 60 0,0
14.06.2018 20:00:00 18,3 13,2 19,7 19,2 17,8 10 5 21 11 NNW 1020,6 53 56 0,0
14.06.2018 19:00:00 18,7 13,5 22,9 19,1 17,8 14 8 26 14 WNW 1020,3 20 60 0,0
14.06.2018 18:00:00 18,5 13,4 21,8 19,0 17,8 16 9 29 16 NW 1020,5 20 54 0,0
14.06.2018 17:00:00 18,7 14,4 21,0 18,7 17,8 16 9 28 15 NW 1020,7 20 13 0,0
14.06.2018 16:00:00 18,6 13,5 21,2 18,4 17,8 21 11 31 17 WNW 1020,8 20 34 0,0
14.06.2018 15:00:00 18,5 13,6 21,3 18,1 17,9 19 10 34 18 WNW 1021,1 32 43 0,0
14.06.2018 14:00:00 18,9 14,0 21,2 17,9 17,9 17 9 30 16 NW 1021,4 19 29 0,0
14.06.2018 13:00:00 18,1 14,0 20,8 17,8 17,9 18 10 31 17 WNW 1021,3 42 13 0,0
14.06.2018 12:00:00 18,3 13,8 20,9 17,6 17,9 16 9 25 14 NW 1021,1 20 18 0,0
14.06.2018 11:00:00 17,7 14,0 17,9 17,5 17,9 17 9 24 13 WNW 1020,8 40 4 0,0
14.06.2018 10:00:00 17,1 13,4 18,3 17,4 17,9 15 8 21 12 NW 1020,8 47 41 0,0
14.06.2018 09:00:00 16,9 13,4 17,2 17,5 17,9 11 6 21 11 WNW 1020,7 20 34 0,0
14.06.2018 08:00:00 16,4 13,5 15,0 17,5 17,9 9 5 18 10 NW 1020,5 41 35 0,0
14.06.2018 07:00:00 15,6 13,4 14,6 17,6 17,9 13 7 26 14 WNW 1020,3 41 11 0,0
14.06.2018 06:00:00 15,8 13,6 14,7 17,6 17,9 12 7 17 9 WNW 1020,4 36 0 0,0
14.06.2018 05:00:00 15,9 13,4 14,5 17,7 17,9 8 5 16 9 WNW 1020,6 36 0 0,0
14.06.2018 04:00:00 15,9 13,6 14,6 17,7 18,0 10 5 20 11 WNW 1021,1 34 0 0,0
14.06.2018 03:00:00 15,7 13,5 14,5 17,8 18,0 13 7 22 12 WNW 1021,3 31 0 0,0
14.06.2018 02:00:00 15,7 13,7 14,7 17,8 18,0 13 7 25 14 WNW 1021,8 29 0 0,0
14.06.2018 01:00:00 16,2 13,9 15,6 17,8 18,0 16 9 28 15 WNW 1022,0 28 0 0,0
14.06.2018 00:00:00 16,4 14,6 16,0 17,9 18,0 19 10 30 16 WNW 1022,2 19 0 0,0
13.06.2018 23:00:00 16,5 14,5 16,0 17,9 18,0 18 10 29 16 WNW 1021,9 17 0 0,0
13.06.2018 22:00:00 16,5 14,7 15,8 17,9 18,0 21 11 31 17 WNW 1021,5 16 0 0,0
13.06.2018 21:00:00 16,4 14,8 15,8 17,9 18,0 20 11 36 19 WNW 1021,6 13 0 0,0
13.06.2018 20:00:00 16,9 14,7 16,7 17,9 18,0 23 12 39 21 WNW 1021,4 16 0 0,0
13.06.2018 19:00:00 17,0 15,0 16,9 17,8 18,0 28 15 46 25 WNW 1021,1 16 0 0,0
13.06.2018 18:00:00 17,0 15,0 17,2 17,8 18,0 29 16 43 23 WNW 1021,3 13 0 0,0
13.06.2018 17:00:00 17,5 14,9 17,5 17,7 18,0 29 16 45 25 WNW 1021,4 17 0 0,0
13.06.2018 16:00:00 17,0 14,6 17,1 17,7 18,1 28 15 44 24 WNW 1021,5 17 0 0,0
13.06.2018 15:00:00 17,0 14,5 17,2 17,7 18,1 26 14 45 25 WNW 1021,4 19 0 0,0
13.06.2018 14:00:00 17,1 14,6 16,9 17,6 18,1 30 16 49 26 WNW 1021,5 17 0 0,0
13.06.2018 13:00:00 16,8 14,3 16,1 17,7 18,1 33 18 48 26 WNW 1021,3 17 0 0,0
13.06.2018 12:00:00 16,5 14,7 15,7 17,7 18,1 27 15 46 25 WNW 1021,0 14 0 0,0
13.06.2018 11:00:00 16,0 14,9 15,1 17,7 18,1 29 15 50 27 WNW 1020,8 10 0 0,2
13.06.2018 10:00:00 15,8 14,8 15,0 17,7 18,1 30 16 51 28 WNW 1020,4 8 0 4,0
13.06.2018 09:00:00 15,7 14,9 15,1 17,8 18,1 32 17 48 26 WNW 1020,2 1,9 0 4,7
13.06.2018 08:00:00 15,9 14,9 15,1 17,9 18,1 34 19 59 32 WNW 1019,7 1,8 0 3,6
13.06.2018 07:00:00 16,5 14,9 15,9 17,9 18,1 37 20 52 28 WNW 1019,3 9 0 0,0
13.06.2018 06:00:00 16,4 14,9 15,9 17,9 18,1 34 19 57 31 WNW 1019,1 9 0 0,0
13.06.2018 05:00:00 16,4 15,1 15,4 17,9 18,1 36 19 58 32 WNW 1018,9 9 0 0,0
13.06.2018 04:00:00 16,0 15,2 15,3 18,0 18,1 37 20 61 33 WNW 1018,6 4,2 0 2,4
13.06.2018 03:00:00 16,1 15,3 15,6 18,0 18,1 31 17 51 27 W 1018,9 4,2 0 0,2
13.06.2018 02:00:00 16,2 15,7 15,7 18,1 18,2 33 18 61 33 W 1019,0 2,5 0 2,0
13.06.2018 01:00:00 16,5 15,4 15,7 18,1 18,2 38 21 61 33 W 1018,9 3,4 0 0,2
13.06.2018 00:00:00 16,8 15,5 16,1 18,1 18,2 39 21 69 38 W 1018,8 8 0 0,0
12.06.2018 23:00:00 16,8 15,7 15,8 18,2 18,2 42 23 74 40 W 1018,2 6 0 0,0
12.06.2018 22:00:00 16,4 15,6 15,7 18,2 18,2 41 22 68 37 W 1017,2 3,8 0 1,0
12.06.2018 21:00:00 16,9 15,4 16,0 18,3 18,2 37 20 65 35 W 1016,9 7 0 0,0
12.06.2018 20:00:00 17,1 15,4 16,6 18,3 18,2 41 22 68 37 W 1016,9 7 0 0,0
12.06.2018 19:00:00 17,1 15,4 16,1 18,4 18,2 43 23 72 39 W 1016,1 8 0 0,0
12.06.2018 18:00:00 16,9 15,8 16,1 18,4 18,2 46 25 77 41 W 1015,7 8 0 0,2
12.06.2018 17:00:00 16,6 16,1 16,2 18,5 18,2 43 23 70 38 W 1015,2 2,4 0 1,4
12.06.2018 16:00:00 16,6 16,1 16,1 18,6 18,2 46 25 77 41 WNW 1014,8 2,6 0 6,0
12.06.2018 15:00:00 16,5 16,0 16,1 18,6 18,2 42 23 75 40 W 1014,1 1,1 0 8,3
12.06.2018 14:00:00 16,5 15,9 16,1 18,7 18,2 45 24 77 41 W 1013,7 3,1 0 0,6
12.06.2018 13:00:00 16,6 16,0 16,2 18,7 18,2 44 24 77 42 W 1013,2 3,2 0 0,8

tt = Température de l'air
td = dewpoint
tt 5cm = Température de l'air 5cm
tt -20cm = Température de l'air -20cm
tt -100cm = Température de l'air -100cm
ff = Vitesse du vent
fx = gusts
dd = Direction du vent
ppp = reduced air pressure
vv = visibility
sd = Ensoleillement
rr = Quantités de précipitations

stations d'obs. à proximité